Theta_e
317 314 315 324 321 316 318 320 319 320 321 322 325 324 330 330 339 338 339 327 326 325 324 324 325 324 323 323 323 322 321 320 320 320 320 320 320 320 320 319 319 320 320 320 319 320 319 319 319
316 314 319 323 320 319 318 319 321 320 322 324 324 324 336 339 340 340 334 326 326 326 325 325 325 325 324 323 324 323 323 322 321 321 321 320 320 320 320 319 319 319 319 319 319 320 320 320 320
314 319 321 319 317 320 319 321 321 321 323 323 322 323 329 339 341 340 330 327 326 326 326 326 325 325 324 324 324 324 324 323 322 322 321 321 320 320 320 320 320 319 320 319 319 319 320 320 320
327 322 323 321 320 320 321 320 319 319 322 323 323 323 329 339 340 340 328 327 326 326 326 326 326 325 324 324 324 325 324 323 323 322 322 321 321 321 321 321 321 320 320 319 319 319 320 320 320
323 324 323 319 320 320 320 320 321 319 319 322 323 323 325 338 340 337 328 326 327 327 326 326 325 324 324 324 324 324 324 323 323 322 322 322 321 321 321 321 321 321 320 320 319 319 320 320 320
325 322 319 321 319 321 320 322 322 320 322 325 322 322 329 337 338 336 332 327 327 327 327 327 325 325 324 323 323 324 324 323 323 323 322 322 321 321 320 320 320 320 320 320 320 320 320 320 320
327 320 321 320 320 322 323 324 323 322 322 325 324 322 332 337 337 336 337 328 326 327 327 327 326 325 324 322 323 323 323 323 322 322 321 321 320 320 319 319 319 319 319 320 320 320 320 320 321
327 322 325 324 324 323 324 326 326 325 326 326 326 323 326 334 337 337 338 333 326 327 327 327 326 325 324 323 322 322 323 323 323 323 322 321 320 319 319 319 319 318 318 318 319 319 320 320 321
321 324 326 326 325 324 325 325 326 327 327 327 327 326 330 336 338 337 338 328 326 327 328 327 326 325 325 324 323 322 322 323 323 323 324 322 322 321 320 319 318 318 317 317 317 318 319 320 320
318 319 325 326 326 326 326 326 326 326 326 327 327 327 328 341 343 338 334 326 326 327 328 327 326 326 325 324 323 323 323 323 324 325 326 325 323 322 320 320 318 318 317 316 316 316 317 318 319
317 320 323 324 322 323 323 322 323 324 325 326 326 327 327 328 341 341 333 327 327 328 327 327 327 326 326 325 324 324 324 325 324 325 325 326 324 323 322 321 320 319 317 316 315 315 315 316 317
312 313 314 315 316 317 320 320 321 322 323 325 322 323 326 328 329 329 338 332 326 326 327 327 327 326 327 326 325 325 325 325 326 326 326 326 326 326 326 325 324 322 320 317 316 315 314 314 315
310 311 312 312 312 313 314 314 315 316 317 318 319 320 321 326 328 329 328 334 333 331 327 327 327 327 327 327 326 327 327 326 327 326 326 327 327 328 328 328 330 332 330 329 323 319 316 315 316
310 310 310 311 312 312 313 314 315 317 318 318 318 319 320 322 325 328 329 332 330 332 335 329 327 327 327 327 328 329 328 328 327 328 329 329 329 328 329 331 333 335 337 338 336 330 323 321 326
310 309 308 310 312 312 314 313 314 316 317 317 318 318 319 320 323 324 326 328 329 336 335 338 332 329 329 328 329 330 329 329 329 332 333 332 330 330 329 332 335 337 340 340 340 337 331 329 332
308 306 305 308 309 311 312 313 315 316 315 316 315 316 317 318 319 321 325 326 327 329 335 336 338 337 333 333 331 331 331 335 339 338 337 334 330 329 330 333 336 338 341 342 342 340 335 332 334
305 307 309 309 310 309 311 310 311 314 314 313 314 314 314 314 315 317 320 323 325 327 328 334 336 338 337 336 336 335 338 337 339 337 334 328 326 326 328 332 337 340 342 343 343 342 339 334 334
310 309 309 309 310 310 310 311 311 313 313 313 313 314 314 314 314 314 315 316 320 324 325 330 336 337 338 338 338 340 338 338 337 335 333 328 326 327 328 330 335 339 341 343 344 342 340 336 336
310 310 309 310 310 310 310 311 312 311 312 311 313 313 314 314 313 313 314 315 315 317 326 326 329 334 338 339 340 339 338 336 335 334 330 329 329 329 328 329 333 336 342 342 344 343 341 337 337
310 310 310 311 312 312 311 312 312 311 310 312 312 313 313 313 313 313 313 313 315 315 319 324 326 329 335 338 340 338 335 335 334 332 332 330 331 331 328 328 333 339 342 343 344 343 341 340 337
311 311 311 312 312 311 310 311 310 310 310 311 311 311 311 311 312 312 312 312 313 315 316 319 322 325 327 333 340 338 336 334 334 332 332 331 332 329 326 329 338 340 342 343 344 343 342 341 340
312 311 312 311 312 312 311 312 310 310 308 309 309 310 310 310 310 311 312 312 312 313 315 317 320 323 325 327 335 338 335 333 332 331 332 332 331 327 328 332 339 342 343 343 345 344 343 342 340
311 311 310 311 312 311 312 308 310 310 309 307 307 309 311 312 313 313 313 314 313 312 313 315 316 321 325 327 329 337 334 334 332 332 334 330 328 326 326 336 341 343 343 344 344 344 343 341 342
310 309 309 309 307 310 310 308 310 309 308 308 309 313 314 315 315 315 315 313 314 314 313 314 315 320 324 328 329 331 336 335 335 334 331 329 328 325 324 335 342 343 344 344 345 342 341 343 341
305 306 306 309 309 310 308 309 309 309 309 311 314 315 315 313 312 313 314 316 314 315 314 314 315 317 322 326 327 331 335 335 335 332 330 327 326 324 323 329 341 343 345 343 341 341 342 340 339
307 305 305 310 312 309 309 311 309 309 314 315 314 313 313 312 311 311 312 314 315 317 316 315 315 316 318 325 326 329 334 335 334 331 328 326 325 322 324 328 340 345 343 341 341 342 340 340 339
308 307 306 309 309 309 309 309 309 310 315 314 313 313 311 312 312 313 313 313 315 320 320 317 317 318 321 324 327 331 333 335 332 328 327 326 326 325 328 338 345 345 343 341 339 341 341 340 339
308 308 309 303 307 311 311 311 311 310 310 314 312 311 312 312 313 313 313 313 318 319 321 322 319 320 322 324 329 334 333 332 329 328 327 327 327 327 331 346 346 345 342 339 340 340 340 339 337
307 308 310 306 311 313 314 311 309 312 313 313 311 312 312 312 313 313 315 316 319 319 323 327 322 323 323 324 330 333 332 330 328 327 327 328 328 328 336 346 346 344 339 340 339 339 340 335 332
308 308 308 306 310 310 311 312 309 311 311 311 311 312 312 311 312 314 316 318 320 321 322 330 324 324 323 324 327 332 331 329 328 328 327 329 331 329 334 347 345 342 340 340 340 338 332 331 331
Wind_Speed
6 4 4 1 3 4 4 7 2 8 8 4 31 8 14 28 10 6 12 42 39 39 39 34 32 30 29 28 27 26 25 24 23 21 19 18 16 14 12 10 9 8 7 7 6 6 5 5 6
5 3 4 3 3 1 5 4 4 6 11 28 28 20 4 7 18 5 29 42 42 41 40 37 34 32 31 29 27 25 24 23 22 20 18 16 14 13 11 9 7 6 5 5 4 4 4 4 5
6 5 3 3 3 7 4 4 4 12 22 24 9 24 11 6 24 9 36 41 44 43 40 38 36 34 32 30 27 25 25 24 21 20 17 15 13 11 10 8 7 6 5 4 4 3 2 3 3
3 5 3 2 12 5 3 6 7 13 23 9 21 7 18 15 21 26 48 45 46 42 40 38 36 34 33 30 27 24 24 23 21 19 17 15 13 11 10 8 7 7 7 6 5 4 3 2 2
4 1 2 3 12 2 3 5 8 8 8 19 21 8 15 14 22 36 49 47 46 43 40 38 36 34 33 30 27 24 23 22 20 18 16 15 13 12 11 10 10 9 8 8 7 7 6 3 2
3 3 0 7 18 1 3 6 6 3 13 27 10 13 8 10 16 40 48 48 45 44 42 38 37 35 33 31 28 25 22 21 19 17 16 15 14 13 12 12 12 12 11 11 10 10 8 7 6
4 3 4 5 9 2 2 4 2 2 9 11 23 7 16 12 14 50 49 49 46 42 41 40 38 36 33 31 28 26 23 21 18 16 16 15 15 15 14 16 15 15 14 13 14 13 12 11 10
5 4 3 4 9 3 1 9 10 4 11 18 17 6 13 22 22 46 44 49 47 43 41 40 39 37 35 31 29 26 23 20 18 16 16 16 16 17 17 18 18 18 17 17 17 15 15 14 14
5 2 5 5 4 3 9 7 11 11 8 21 17 21 26 9 27 42 41 48 46 44 41 40 39 37 34 32 30 28 25 21 20 18 16 17 19 19 20 20 21 21 21 20 19 18 19 18 18
5 4 8 4 3 6 13 7 17 10 21 16 25 27 22 2 18 34 40 47 45 44 42 40 38 36 34 32 31 30 27 25 23 20 18 18 19 20 20 21 21 23 23 23 22 21 22 22 21
4 5 2 7 11 12 14 14 20 11 15 12 22 26 27 17 5 21 28 41 49 45 42 41 39 37 34 33 32 30 29 26 24 22 20 19 20 21 23 22 22 24 24 25 24 24 25 24 24
4 5 5 4 15 18 13 18 18 25 29 21 20 24 24 19 13 5 20 32 38 41 42 40 39 37 35 34 33 31 30 28 25 24 22 21 21 20 22 21 19 21 23 24 24 25 24 25 25
3 3 11 13 10 13 19 18 18 33 33 26 23 21 22 21 21 16 11 15 20 34 40 41 41 39 37 36 34 32 32 30 26 24 24 21 21 20 20 19 17 17 18 19 22 22 23 24 23
5 5 8 7 11 10 8 15 12 49 15 20 23 22 22 21 20 19 18 21 24 32 38 44 42 42 41 40 38 36 33 30 28 26 25 22 22 20 19 18 18 16 15 13 16 18 19 19 18
4 5 6 5 6 5 11 12 21 31 28 22 27 23 20 20 21 22 20 16 19 21 37 44 44 42 42 41 36 37 33 30 27 26 26 24 23 21 20 20 19 16 15 13 15 16 17 17 17
4 4 4 5 5 6 6 16 10 15 17 25 22 18 17 22 24 24 22 22 20 16 20 41 45 44 44 42 39 37 30 27 26 23 24 24 23 23 23 24 20 17 18 17 16 17 16 17 16
6 1 1 6 6 5 4 4 7 26 16 18 28 28 23 22 19 16 20 25 25 22 20 25 39 48 45 42 40 34 29 29 28 23 24 25 23 25 26 27 24 21 21 19 19 18 17 19 16
4 2 3 6 6 7 12 15 7 13 18 17 18 28 38 33 29 27 25 20 22 26 24 23 29 32 42 42 39 34 29 26 27 25 27 27 25 27 27 27 26 23 22 21 23 20 17 18 16
2 3 5 6 6 7 11 18 14 10 10 11 19 24 26 35 39 29 29 25 22 22 25 28 25 34 39 39 42 38 31 33 31 30 30 29 28 28 29 28 27 21 22 22 23 20 18 18 16
3 2 4 6 6 10 9 23 18 12 7 13 15 17 24 30 34 40 31 31 26 24 26 31 32 28 39 40 43 45 43 41 38 31 32 28 29 29 29 29 23 19 19 23 23 21 20 18 20
2 3 4 7 7 8 8 22 9 4 5 13 12 14 19 27 32 37 41 39 34 29 28 28 32 34 34 39 53 50 46 44 41 36 33 32 30 28 28 25 19 17 18 22 22 22 20 20 19
3 4 5 9 6 3 3 12 6 3 8 6 14 21 25 27 26 29 34 38 39 36 31 31 30 32 35 34 42 55 52 49 43 36 34 30 27 27 25 21 17 16 18 20 20 20 21 21 20
7 6 6 6 6 3 4 5 3 7 7 9 8 18 16 22 29 34 35 39 40 39 38 35 32 31 35 37 36 50 54 53 45 39 29 25 26 27 24 19 17 17 19 19 20 21 20 19 19
3 3 4 3 2 2 9 7 17 4 4 4 4 12 17 23 32 37 38 41 42 41 42 38 34 33 33 40 37 48 56 56 49 35 29 27 27 26 24 19 19 17 19 19 21 19 18 17 15
6 5 4 4 2 5 2 3 15 12 10 5 3 14 19 22 28 34 38 39 40 42 43 43 39 35 32 42 44 42 57 57 49 38 32 29 26 26 24 19 18 18 18 18 17 20 18 17 16
5 7 4 5 4 10 10 6 7 4 6 4 9 17 23 28 33 36 42 39 40 41 41 43 43 38 35 39 45 40 49 57 45 36 30 25 24 23 22 18 17 17 15 16 18 18 17 17 15
4 4 4 2 2 1 5 8 9 10 7 6 12 15 19 30 40 41 43 43 36 37 40 41 43 42 36 36 45 40 42 50 41 34 29 26 24 23 21 18 19 16 16 17 19 17 19 19 14
6 3 3 2 3 5 5 6 8 8 10 7 12 15 26 37 42 50 50 42 30 41 39 40 44 45 36 36 43 40 42 44 37 32 31 28 25 23 19 23 20 17 17 20 20 19 18 16 15
3 2 1 3 3 3 4 5 6 8 8 12 10 17 24 36 41 46 50 37 33 42 35 35 44 43 37 38 42 41 44 43 37 33 31 29 27 21 21 25 22 20 21 21 19 18 16 15 13
6 5 4 3 5 4 3 12 7 8 9 10 12 19 24 38 43 46 40 26 39 39 36 22 36 43 40 40 44 48 47 42 36 33 27 27 27 21 22 27 23 21 23 21 19 15 13 13 12
Wind_Direction
295 281 197 265 47 68 247 255 276 310 337 324 312 234 234 224 186 202 176 171 166 164 161 161 161 159 159 157 155 156 156 157 156 155 154 152 151 149 148 147 144 136 131 126 123 118 111 102 95
260 182 198 134 104 203 256 251 297 260 293 307 308 317 184 209 189 182 158 167 168 167 161 163 166 163 163 162 161 162 163 165 161 161 164 163 164 163 161 160 158 154 151 154 152 145 133 124 119
254 171 165 135 170 220 224 213 47 308 318 307 297 314 266 211 195 199 170 167 173 168 164 165 169 168 168 167 168 169 173 173 172 170 176 178 177 178 178 175 176 184 186 194 190 185 159 137 108
181 173 85 102 243 229 219 311 353 326 326 349 327 319 314 269 218 196 169 172 174 170 167 170 171 173 173 174 175 179 180 180 181 182 185 189 188 190 195 198 203 209 215 220 225 232 231 189 114
206 95 112 244 262 226 248 277 328 295 294 308 321 285 300 234 189 176 170 173 176 171 172 174 177 178 179 180 181 186 187 188 189 192 195 198 202 207 213 219 223 227 228 238 245 249 252 250 257
173 106 84 225 247 35 296 280 280 307 307 320 317 319 287 201 206 176 175 175 177 174 174 176 181 181 184 186 186 192 193 194 197 202 207 211 216 222 228 235 237 239 239 244 249 254 257 260 262
157 104 233 263 264 301 250 295 264 310 312 315 329 319 318 225 208 174 178 178 180 179 177 179 183 185 187 191 192 196 199 199 203 211 218 222 227 233 238 243 245 246 248 248 250 256 259 263 264
190 129 255 251 261 300 235 343 301 312 309 327 339 5 322 307 202 177 182 182 182 181 183 184 186 188 190 193 198 201 204 205 208 216 225 231 234 239 243 248 251 252 253 252 254 255 261 263 266
179 131 226 236 266 146 305 0 309 315 308 325 326 345 346 276 200 192 187 183 184 185 188 190 190 193 194 196 201 204 207 211 214 220 231 237 241 244 247 252 256 258 257 254 255 258 260 262 263
186 170 224 242 253 325 295 312 302 324 320 316 325 338 3 228 201 193 186 187 188 190 192 195 197 198 198 201 205 210 210 213 218 222 232 243 249 253 254 256 257 261 260 258 257 258 259 261 263
196 232 218 285 307 314 301 304 307 310 291 312 313 319 330 343 219 210 199 202 194 197 196 199 202 202 204 208 212 215 218 219 222 228 233 246 250 255 258 260 262 265 265 262 262 262 262 265 267
258 237 279 288 299 302 286 304 287 284 273 290 305 315 320 309 314 315 238 216 209 204 206 207 207 208 211 215 219 223 226 226 226 234 237 244 253 256 260 264 269 268 269 269 267 265 265 266 268
219 341 348 327 311 292 293 288 283 277 278 289 293 301 302 303 300 292 277 237 253 230 218 214 214 214 216 221 224 227 230 232 235 241 244 245 252 256 262 268 269 267 269 274 271 268 266 266 268
318 296 305 313 290 265 261 283 297 273 297 302 306 300 298 290 292 298 282 265 282 256 245 224 220 220 217 220 224 225 231 237 239 242 247 250 254 259 264 267 268 267 272 278 278 273 268 264 263
292 332 338 221 244 251 243 260 248 274 298 295 296 296 296 293 286 277 278 281 272 261 249 235 223 223 224 223 228 231 230 236 235 243 251 254 258 266 271 271 269 278 275 282 276 270 260 252 252
7 45 20 284 315 250 190 260 288 295 316 306 315 314 302 289 288 286 281 278 278 284 267 245 237 229 228 226 222 232 224 228 239 243 255 256 262 271 278 278 277 282 277 279 274 271 264 251 250
12 59 282 304 288 270 211 298 316 315 317 316 317 316 317 317 312 305 298 293 279 279 281 267 245 240 233 229 229 226 227 238 241 246 252 252 260 271 279 283 282 276 274 276 274 270 271 255 253
284 332 267 269 286 300 292 286 257 279 290 291 306 310 313 310 313 319 309 311 296 285 273 262 255 248 240 234 231 227 236 235 246 251 252 251 260 269 276 284 285 280 276 277 270 268 268 259 260
261 274 263 275 289 324 300 301 305 284 269 280 294 302 304 310 315 320 319 316 322 310 269 254 259 251 243 236 226 230 234 236 241 249 254 251 259 267 275 281 280 281 275 276 266 262 261 254 256
174 187 279 270 342 311 301 290 294 291 261 264 279 293 303 309 316 321 328 316 307 310 297 267 256 244 243 233 226 228 239 234 240 248 250 249 256 263 273 278 276 276 274 268 257 252 254 249 249
355 265 259 277 295 254 279 279 265 277 289 299 290 299 306 306 306 307 308 308 306 298 302 290 274 259 249 242 234 237 230 232 234 242 241 242 249 262 275 268 270 278 270 264 255 252 250 244 245
312 254 285 307 336 297 44 289 187 219 261 279 293 294 290 294 309 314 311 307 301 292 290 295 285 273 259 252 243 239 232 232 236 242 242 240 251 267 267 262 263 270 266 261 253 251 249 240 242
236 249 265 270 270 300 207 264 157 315 283 261 274 302 321 312 308 306 304 300 294 289 288 289 292 279 264 242 241 234 233 234 240 243 237 242 257 264 259 257 256 262 265 253 248 251 239 238 240
290 314 316 329 75 259 217 196 284 222 260 320 284 300 313 317 310 305 302 297 293 286 281 277 283 283 258 243 240 235 237 238 236 239 237 247 255 258 252 250 249 261 260 251 250 231 232 242 238
54 51 322 327 332 229 299 305 262 298 296 237 260 297 307 314 317 315 311 304 292 291 283 276 276 274 264 249 247 242 235 239 234 237 243 248 251 252 247 243 246 259 258 247 221 225 229 228 233
242 169 168 262 256 280 293 236 261 237 217 256 292 299 309 315 314 313 315 302 298 288 281 273 270 270 267 247 249 247 233 235 228 237 245 251 251 247 246 240 244 248 250 230 218 224 222 232 233
261 220 208 210 279 358 235 270 299 273 247 292 298 305 305 315 319 311 309 297 298 295 282 270 266 267 265 245 244 238 230 225 227 240 243 248 244 243 237 231 231 235 230 216 218 226 219 223 230
175 190 274 4 290 266 274 268 246 276 280 308 298 300 313 318 315 309 305 298 298 310 284 268 257 260 257 242 239 228 224 227 232 243 243 243 236 237 230 224 225 227 216 209 213 216 218 225 241
306 303 189 160 179 246 283 247 224 266 270 268 273 299 309 320 311 304 301 294 308 316 305 262 248 251 245 233 235 224 222 230 236 241 242 238 234 231 224 223 221 217 202 209 211 217 217 235 237
226 236 180 139 264 241 257 275 251 241 253 272 272 292 322 335 315 305 298 294 322 326 311 272 240 245 238 232 232 222 225 228 237 237 234 231 227 226 225 218 215 208 202 207 210 210 235 229 221